Location: ?????????
(53.2086°N, 54.0693°E)
Time: 05:27:02
(UTC+00:00)

Cosmos 1500 - Pass Details

Date: 08 December 2019
Orbit: 499 x 521 km, 82.5° (Epoch: 18 January)

Event Time Altitude Azimuth Distance (km) Brightness Sun altitude
Rises 13:34:08 0° 350° (N) 2,632 6.7 -12.1°
Reaches altitude 10° 13:36:18 10° 353° (N) 1,737 5.7 -12.4°
Maximum altitude 13:40:05 68° 77° (ENE) 549 3.0 -13.0°
Drops below altitude 10° 13:43:49 10° 161° (SSE) 1,711 5.9 -13.5°
Sets 13:45:56 0° 164° (SSE) 2,587 6.8 -13.8°
